Location: Emblem
(62.4273°N, 6.4710°E)
Time: 19:16:07
(UTC+01:00)

Tiros 1 - All Passes

Search period start: 07 February 2023 00:00
Search period end: 17 February 2023 00:00
Orbit: 629 x 662 km, 48.4° (Epoch: 06 February)

Date Brightness Start Highest point End Pass type
(mag) Time Alt. Az. Time Alt. Az. Time Alt. Az.
07 Feb - 01:38:16 10° SSW 01:40:33 14° S 01:42:51 10° SE night (unlit)
07 Feb - 03:19:07 10° SW 03:21:21 13° S 03:23:35 10° SSE night (unlit)
08 Feb - 00:23:23 10° S 00:24:35 11° SSE 00:25:47 10° SE night (unlit)
08 Feb - 02:02:50 10° SSW 02:05:20 14° S 02:07:50 10° SSE night (unlit)
08 Feb - 03:44:52 10° SW 03:46:05 11° SSW 03:47:17 10° S night (unlit)
09 Feb - 00:47:06 10° SSW 00:49:18 13° S 00:51:32 10° SE night (unlit)
09 Feb - 02:27:49 10° SW 02:30:07 14° S 02:32:23 10° SSE night (unlit)
09 Feb - 23:32:29 10° S 23:33:20 10° SSE 23:34:12 10° SSE night (unlit)
10 Feb - 01:11:36 10° SSW 01:14:04 14° S 01:16:34 10° SE night (unlit)
10 Feb - 02:53:26 10° SW 02:54:50 11° SSW 02:56:14 10° S night (unlit)
10 Feb - 23:55:56 10° SSW 23:58:03 13° SSE 00:00:11 10° SE night (unlit)
11 Feb - 01:36:32 10° SW 01:38:51 14° S 01:41:10 10° SSE night (unlit)
11 Feb - 22:42:01 10° SSE 22:42:06 10° SSE 22:42:11 10° SSE night (unlit)
12 Feb - 00:20:22 10° SSW 00:22:49 14° S 00:25:17 10° SE night (unlit)
12 Feb - 02:02:01 10° SW 02:03:35 12° SSW 02:05:09 10° S night (unlit)
12 Feb - 23:04:46 10° SSW 23:06:48 13° SSE 23:08:49 10° SE night (unlit)
13 Feb - 00:45:14 10° SW 00:47:35 14° S 00:49:56 10° SSE night (unlit)
13 Feb - 23:29:08 10° SSW 23:31:33 14° S 23:33:59 10° SE night (unlit)
14 Feb - 01:10:37 10° SW 01:12:19 12° SSW 01:14:02 10° S night (unlit)
14 Feb - 22:13:37 10° S 22:15:32 12° SSE 22:17:26 10° SE night (unlit)
14 Feb - 23:53:56 10° SW 23:56:19 14° S 23:58:42 10° SSE night (unlit)
15 Feb - 22:37:52 10° SSW 22:40:17 14° S 22:42:40 10° SE night (unlit)
16 Feb - 00:19:13 10° SW 00:21:03 12° SSW 00:22:53 10° S night (unlit)
16 Feb - 21:22:28 10° S 21:24:15 12° SSE 21:26:03 10° SE visible
16 Feb - 23:02:38 10° SW 23:05:02 14° S 23:07:26 10° SSE night (unlit)
